Regional Weather Roundup
Issued by NWS State College, PA

Home | Current Version | Previous Version | Text Only | Print | Product List | Glossary On
Versions: 1 2 3 4 5 6 7 8 9 10 11 12 13 14 15 16 17 18 19 20 21 22 23 24 25 26 27 28 29 30 31 32 33 34 35 36 37 38 39 40 41 42 43 44 45 46 47 48 49 50
000
ASUS41 KCTP 300010
RWRCTP

REGIONAL WEATHER ROUNDUP
NATIONAL WEATHER SERVICE STATE COLLEGE PA
800 PM EDT SAT AUG 29 2015

Note: "fair" indicates few or no clouds below 12,000 feet with no
significant weather and/or obstructions to visibility.

* = STATION THAT DOES NOT REPORT PRECIPITATION /E.G. RAIN...SNOW...ETC/
    THUNDER OR FOG.

PAZ002>004-007>009-013>016-020>023-029>032-300100-
WESTERN PENNSYLVANIA

CITY           SKY/WX    TMP DP  RH WIND       PRES   REMARKS
ERIE           PTCLDY    73  57  57 NE5       30.07F
MEADVILLE      PTCLDY    74  59  59 CALM      30.09F
FRANKLIN*      MOCLDY    73  61  64 E3        30.12S
NEW CASTLE     HVY RAIN  68  66  94 E3        30.11R FOG
BEAVER COUNTY  NOT AVBL
BUTLER*        PTCLDY    73  61  64 CALM      30.11S
PITTSBURGH INT MOCLDY    80  61  52 S3        30.08S
PITTSBURGH     CLEAR     79  55  43 S3        30.09S
INDIANA*       CLEAR     73  63  68 CALM      30.14S
LATROBE        CLEAR     79  61  53 CALM      30.10S
WASHINGTON CO* CLEAR     72  64  78 CALM      30.10S
$$

PAZ004>006-010>012-017>019-024>028-033>037-041-042-045-046-049>053-300100-
CENTRAL PENNSYLVANIA

CITY           SKY/WX    TMP DP  RH WIND       PRES   REMARKS
BRADFORD       MOCLDY    69  55  60 CALM      30.14S
DUBOIS         PTCLDY    71  58  63 CALM      30.12F
CLEARFIELD     CLEAR     71  59  65 N3        30.13S
JOHNSTOWN      PTCLDY    74  54  49 CALM      30.15F
ALTOONA        PTCLDY    70  59  68 SE6       30.12F
STATE COLLEGE  CLEAR     75  59  57 CALM      30.11F
WILLIAMSPORT   CLEAR     71  64  78 CALM      30.07F
SELINSGROVE    CLEAR     68  64  87 CALM      30.09F
FT INDIANTOWN  CLEAR     71  65  79 NE2       30.10S
CAPITAL CITY   CLEAR     75  66  73 CALM      30.08F
HARRISBURG     MOCLDY    74  67  78 SE6       30.08S
YORK           CLEAR     74  66  76 VRB5      30.10R
$$

PAZ038>040-043-044-047-048-054-055-060>062-067>071-300100-
EASTERN PENNSYLVANIA

CITY           SKY/WX    TMP DP  RH WIND       PRES   REMARKS
SCRANTON       PTCLDY    75  60  59 CALM      30.10S
MOUNT POCONO   CLEAR     70  60  70 SW3       30.16S
ALLENTOWN      PTCLDY    76  63  64 SW6       30.10S
QUAKERTOWN*    PTCLDY    77  64  65 CALM      30.12S
READING        CLEAR     77  63  61 S6        30.09S
LANCASTER      CLEAR     76  64  66 S6        30.10S
COATESVILLE    CLEAR     73  64  73 CALM      30.13S
POTTSTOWN      PTCLDY    77  63  61 CALM      30.12S
BLUE BELL      CLEAR     79  64  61 SW3       30.10S
DOYLESTOWN     CLEAR     75  62  64 S3        30.10S
WILLOW GROVE   NOT AVBL
NORTH PHILA    PTCLDY    81  60  48 SW7       30.11R
PHILADELPHIA   PTCLDY    81  61  50 SW14      30.11R
$$



USA.gov is the U.S. government's official web portal to all federal, state and local government web resources and services.